ONEWEB-0021, 45134

Orbit data source: Space-Track

ONEWEB-0021, 45134 is a payload satellite owned by One Web (UK) in LEO that was launched on Thu, 06 Feb 2020 UTC via a SOYUZ-2-1B launch vehicle from the Tyuratam Missile And Space Complex (TTMTR). Payload-class satellites include a variety of spacecraft equipped with specific instruments for various scientific and technological missions. These include communications satellites like Starlink; space stations such as the ISS; scientific satellites like the Hubble; Earth observation satellites from companies like Planet Labs, Umbra, and HawkEye 360; GPS; miniature CubeSats for education and research; and military/defense satellites.

Loading next visibility...
Identifier
45134, 2020-008D
Orbit
LEO
Last TLE update
14 hours ago
Origin
Manufacturer
One Web
Mission
Operational Commercial Communications
Bus & Motor
ARROW, Unknown motor
Mass
148 kg wet, ~140 kg dry
Launch date (UTC)
2020-02-06 (5 years ago)
Launch vehicle
SOYUZ-2-1B
Launch site
Tyuratam Missile And Space Complex (TTMTR)
Object type
Payload
Rocket body
Debris
Shape & HBR
Trap Box + 2 Pan, 5 m
Radar Cross Section
2.957 m², Large (>1 m²)

Expand to show TLE details & history

TLE from 14 hours ago
0 ONEWEB-0021
1 45134U 20008D   25181.81663199 -.00000778  00000-0 -22663-2 0  9992
2 45134  87.8831 106.3646 0001990  82.0926 278.0427 13.10373006262639
Epoch: 2025-06-30T19:35Z
TLE epoch observation values (Epoch: 2025-06-30T19:35:57.003Z)
Latitude
-0.00006°
Longitude
-106.74392°
Altitude
1,224.393 km
Speed
7.242 km/s
True Right ascension
07h 05m 27s
True Declination
0° 00' 00"
Sunlit
Object was in daylight at epoch
Visualization orbit readout
Latitude
-77.04226°
Longitude
-116.05982°
Altitude
1,250.854 km
Speed
7.229 km/s
Apparent Right ascension
08h 44m 57s
Apparent Declination
-61° 33' 06"
Sunlit
Object is in daylight
Visualization observer readout
Local Sidereal Time
21:30:21
Azimuth
165.955° S
Elevation
-67.28°
Doppler factor
1
Orbital elements
Apogee altitude
1,220.348 km
Perigee altitude
1,217.324 km
Semi-major axis
7,596.973 km
Eccentricity
0.0002
Inclination
87.8831°
RAAN
106.3646°
Arg. of periapsis
82.0926°
True anomaly
Unknown
Mean anomaly
278.0427°
Eccentric anomaly
Unknown
Mean motion
3.2778 °/min
Orbital period
109.83 mins
BSTAR
-0.0022663
Loading maneuver chart data...
Loading SW <> Apogee altitude chart data...
Loading historical data...
Loading historical data...
Loading historical data...
Loading historical data...
Loading historical data...
Loading historical data...
Loading historical data...

ONEWEB-0021 Visibility forecast

Observer location: undefined°, undefined°

Span
Click to sort rows by Start time (UTC) header in descending order
Start Az.
Max El. time (UTC)
Max El. Az.
Max El.
End time (UTC)
End Az.
7 mins2025-07-01 17:44:59.816Z103.381° ESE2025-07-01 17:48:59.816Z67.816° E16.052°2025-07-01 17:51:59.816Z41.748° NE
12 mins2025-07-01 19:31:59.816Z182.911° SSW2025-07-01 19:37:59.816Z324.681° NNW44.405°2025-07-01 19:43:59.816Z358.659° N
4 mins2025-07-01 21:26:59.816Z275.305° WNW2025-07-01 21:28:59.816Z292.637° NW13.002°2025-07-01 21:30:59.816Z309.507° NW
4 mins2025-07-02 05:14:59.816Z55.911° ENE2025-07-02 05:16:59.816Z72.98° E12.576°2025-07-02 05:18:59.816Z89.69° E
13 mins2025-07-02 07:01:59.816Z2.522° NNE2025-07-02 07:07:59.816Z111.12° ESE44.595°2025-07-02 07:14:59.816Z177.037° S
7 mins2025-07-02 08:53:59.816Z313.613° NW2025-07-02 08:56:59.816Z285.925° WNW16.62°2025-07-02 09:00:59.816Z251.612° W
|